Location: City of Moscow
(46.7306°N, 116.9989°W)
Time: 17:28:47
(UTC+00:00)

Cosmos 1092 Rocket - Pass Details

Date: 11 December 2025
Orbit: 953 x 995 km, 83.0° (Epoch: 15 January)

Event Time Altitude Azimuth Distance (km) Brightness Sun altitude
Rises 13:14:22 0° 190° (S) 3,682 7.0 -21.1°
Reaches altitude 10° 13:16:54 10° 192° (SSW) 2,732 6.3 -20.6°
Maximum altitude 13:23:10 78° 279° (W) 1,001 3.9 -19.6°
Drops below altitude 10° 13:29:25 10° 6° (N) 2,722 6.3 -18.5°
Sets 13:31:56 0° 8° (N) 3,667 7.0 -18.1°
